,,Stat5,,Stat1,,Stat2,,Stat3,,Stat4,,Wind1,,Wind1,
time,status,PA1M_AVG,status,PR1M_SUM,status,RH1M_AVG,status,SR1M_AVG,status,TA1M_AVG,status,W1dAve1m,status,W1sAve1m,
2002-11-30, 00:00:01,VALID,921.224,VALID,0,VALID,97.1938,VALID,-0.0169808,VALID,18.5281,VALID,7,VALID,0.814844,
2002-11-30, 00:01:00,VALID,921.209,VALID,0,VALID,97.1836,VALID,0,VALID,18.5052,VALID,6,VALID,0.608259,
2002-11-30, 00:02:00,VALID,921.195,VALID,0,VALID,96.9103,VALID,0,VALID,18.4436,VALID,6,VALID,0.383213,
2002-11-30, 00:03:00,VALID,921.161,VALID,0,VALID,97.0158,VALID,-0.0169808,VALID,18.4046,VALID,6,VALID,0.238616,
2002-11-30, 00:04:00,VALID,921.155,VALID,0,VALID,97.2599,VALID,-0.0169808,VALID,18.4079,VALID,6,VALID,0.199535,
2002-11-30, 00:05:00,VALID,921.148,VALID,0,VALID,97.4558,VALID,0,VALID,18.4436,VALID,6,VALID,0.467061,
2002-11-30, 00:06:00,VALID,921.138,VALID,0,VALID,97.1506,VALID,0,VALID,18.4049,VALID,6,VALID,0.12315,
2002-11-30, 00:07:00,VALID,921.128,VALID,0,VALID,96.9827,VALID,0.0169808,VALID,18.3495,VALID,6,VALID,0.220089,
2002-11-30, 00:08:00,VALID,921.122,VALID,0,VALID,97.0527,VALID,0,VALID,18.3306,VALID,6,VALID,0.0928571,
2002-11-30, 00:09:00,VALID,921.109,VALID,0,VALID,97.0654,VALID,0.0169808,VALID,18.3144,VALID,349,VALID,0.21254,
2002-11-30, 00:10:00,VALID,921.106,VALID,0,VALID,97.8373,VALID,0,VALID,18.4242,VALID,304,VALID,0.26671,
2002-11-30, 00:11:00,VALID,921.107,VALID,0,VALID,98.0331,VALID,0,VALID,18.4884,VALID,269,VALID,0.349918,
2002-11-30, 00:12:00,VALID,921.105,VALID,0,VALID,98.3128,VALID,0.0339617,VALID,18.5793,VALID,256,VALID,0.184333,
2002-11-30, 00:13:00,VALID,921.098,VALID,0,VALID,98.3929,VALID,0.0169808,VALID,18.6473,VALID,294,VALID,0.13014,
2002-11-30, 00:14:00,VALID,921.07,VALID,0,VALID,97.9542,VALID,0,VALID,18.5698,VALID,357,VALID,0.172768,
2002-11-30, 00:15:00,VALID,921.062,VALID,0,VALID,98.1183,VALID,0.0169808,VALID,18.583,VALID,302,VALID,0.155134,
2002-11-30, 00:16:00,VALID,921.046,VALID,0,VALID,98.3319,VALID,-0.0169808,VALID,18.6416,VALID,311,VALID,0.0562901,
2002-11-30, 00:17:00,VALID,921.025,VALID,0,VALID,98.0318,VALID,-0.0169808,VALID,18.5894,VALID,21,VALID,0.271267,
2002-11-30, 00:18:00,VALID,921.012,VALID,0,VALID,97.7559,VALID,0,VALID,18.4958,VALID,14,VALID,0.0511924,
2002-11-30, 00:19:00,VALID,921.018,VALID,0,VALID,98.3141,VALID,0,VALID,18.6086,VALID,334,VALID,0.412584,
2002-11-30, 00:20:00,VALID,921.019,VALID,0,VALID,98.3955,VALID,0.0169808,VALID,18.6376,VALID,330,VALID,0.162007,
2002-11-30, 00:21:00,VALID,921.027,VALID,0,VALID,98.543,VALID,-0.0509425,VALID,18.6769,VALID,293,VALID,0.132143,
2002-11-30, 00:22:00,VALID,921.019,VALID,0,VALID,98.5557,VALID,-0.0169808,VALID,18.6896,VALID,293,VALID,0.0805804,
2002-11-30, 00:23:00,VALID,920.995,VALID,0,VALID,97.663,VALID,-0.0509425,VALID,18.4985,VALID,293,VALID,0.0274439,
2002-11-30, 00:24:00,VALID,920.981,VALID,0,VALID,97.6452,VALID,-0.0509425,VALID,18.3862,VALID,326,VALID,0.116753,
2002-11-30, 00:25:00,VALID,920.961,VALID,0,VALID,97.6872,VALID,-0.0169808,VALID,18.3601,VALID,19,VALID,0,
2002-11-30, 00:26:00,VALID,920.951,VALID,0,VALID,97.8665,VALID,0.0169808,VALID,18.3606,VALID,315,VALID,0.134502,
2002-11-30, 00:27:00,VALID,920.951,VALID,0,VALID,98.351,VALID,-0.0509425,VALID,18.457,VALID,238,VALID,0.0573602,
2002-11-30, 00:28:00,VALID,920.929,VALID,0,VALID,98.5735,VALID,-0.0339617,VALID,18.5576,VALID,238,VALID,0.000669643,
2002-11-30, 00:29:00,VALID,920.921,VALID,0,VALID,98.3167,VALID,-0.0339617,VALID,18.4923,VALID,238,VALID,0.00111607,
2002-11-30, 00:30:00,VALID,920.893,VALID,0,VALID,98.131,VALID,-0.0509425,VALID,18.409,VALID,238,VALID,0,
2002-11-30, 00:31:00,VALID,920.904,VALID,0,VALID,98.3192,VALID,-0.0679233,VALID,18.4146,VALID,238,VALID,0,
2002-11-30, 00:32:00,VALID,920.909,VALID,0,VALID,98.4998,VALID,-0.0339617,VALID,18.457,VALID,238,VALID,0,
2002-11-30, 00:33:00,VALID,920.912,VALID,0,VALID,98.6193,VALID,-0.0169808,VALID,18.5057,VALID,238,VALID,0,
2002-11-30, 00:34:00,VALID,920.906,VALID,0,VALID,98.6435,VALID,0,VALID,18.5087,VALID,238,VALID,0.27611,
2002-11-30, 00:35:00,VALID,920.903,VALID,0,VALID,98.7045,VALID,-0.0509425,VALID,18.5154,VALID,238,VALID,0.104241,
2002-11-30, 00:36:00,VALID,920.893,VALID,0,VALID,98.7363,VALID,-0.0339617,VALID,18.5251,VALID,238,VALID,0,
2002-11-30, 00:37:00,VALID,920.873,VALID,0,VALID,98.707,VALID,-0.0169808,VALID,18.5218,VALID,238,VALID,0,
2002-11-30, 00:38:00,VALID,920.87,VALID,0,VALID,98.482,VALID,-0.0169808,VALID,18.4508,VALID,238,VALID,0.0961372,
2002-11-30, 00:39:00,VALID,920.858,VALID,0,VALID,98.5837,VALID,-0.0169808,VALID,18.4275,VALID,238,VALID,0.120271,
2002-11-30, 00:40:00,VALID,920.853,VALID,0,VALID,98.4985,VALID,-0.0169808,VALID,18.3991,VALID,238,VALID,0,
2002-11-30, 00:41:00,VALID,920.835,VALID,0,VALID,98.4807,VALID,-0.0339617,VALID,18.3663,VALID,238,VALID,0,
2002-11-30, 00:42:00,VALID,920.824,VALID,0,VALID,98.6218,VALID,-0.0679233,VALID,18.3996,VALID,238,VALID,0,
2002-11-30, 00:43:00,VALID,920.813,VALID,0,VALID,98.5837,VALID,-0.0339617,VALID,18.3859,VALID,238,VALID,0,
2002-11-30, 00:44:00,VALID,920.765,VALID,0,VALID,98.4196,VALID,-0.0339617,VALID,18.3373,VALID,238,VALID,0,
2002-11-30, 00:45:00,VALID,920.755,VALID,0,VALID,98.2187,VALID,-0.0169808,VALID,18.2535,VALID,238,VALID,0,
2002-11-30, 00:46:00,VALID,920.736,VALID,0,VALID,98.0293,VALID,-0.0169808,VALID,18.1954,VALID,296,VALID,0.305099,
2002-11-30, 00:47:00,VALID,920.745,VALID,0,VALID,97.7571,VALID,-0.0339617,VALID,18.0667,VALID,9,VALID,0.267103,
2002-11-30, 00:48:00,VALID,920.733,VALID,0,VALID,97.9733,VALID,-0.0169808,VALID,18.0503,VALID,9,VALID,0.0275493,
2002-11-30, 00:49:00,VALID,920.731,VALID,0,VALID,98.2887,VALID,-0.0339617,VALID,18.0821,VALID,9,VALID,0,
2002-11-30, 00:50:00,VALID,920.726,VALID,0,VALID,98.557,VALID,0,VALID,18.1566,VALID,9,VALID,0,
2002-11-30, 00:51:00,VALID,920.732,VALID,0,VALID,98.5913,VALID,-0.0169808,VALID,18.1566,VALID,9,VALID,0,
2002-11-30, 00:52:00,VALID,920.724,VALID,0,VALID,98.6867,VALID,-0.0169808,VALID,18.1827,VALID,9,VALID,0,
2002-11-30, 00:53:00,VALID,920.729,VALID,0,VALID,98.7604,VALID,0,VALID,18.2051,VALID,9,VALID,0.0265214,
2002-11-30, 00:54:00,VALID,920.731,VALID,0,VALID,98.6778,VALID,-0.0169808,VALID,18.2189,VALID,9,VALID,0.109164,
2002-11-30, 00:55:00,VALID,920.731,VALID,0,VALID,98.5023,VALID,-0.0169808,VALID,18.1506,VALID,9,VALID,0.208265,
2002-11-30, 00:56:00,VALID,920.719,VALID,0,VALID,98.4985,VALID,-0.0169808,VALID,18.1153,VALID,9,VALID,0.331473,
2002-11-30, 00:57:00,VALID,920.687,VALID,0,VALID,98.6396,VALID,0,VALID,18.1183,VALID,9,VALID,0.428125,
2002-11-30, 00:58:00,VALID,920.668,VALID,0,VALID,98.7884,VALID,-0.0339617,VALID,18.1472,VALID,9,VALID,0.336739,
2002-11-30, 00:59:00,VALID,920.65,VALID,0,VALID,99.0008,VALID,0,VALID,18.2378,VALID,9,VALID,0.367405,
2002-11-30, 01:00:00,VALID,920.628,VALID,0,VALID,99.0275,VALID,-0.0169808,VALID,18.2826,VALID,9,VALID,0.278988,
2002-11-30, 01:01:00,VALID,920.601,VALID,0,VALID,98.9741,VALID,-0.0339617,VALID,18.2925,VALID,9,VALID,0,
2002-11-30, 01:02:00,VALID,920.607,VALID,0,VALID,98.8393,VALID,-0.0509425,VALID,18.2771,VALID,9,VALID,0,
2002-11-30, 01:03:00,VALID,920.586,VALID,0,VALID,98.7592,VALID,-0.0339617,VALID,18.2348,VALID,9,VALID,0.1875,
2002-11-30, 01:04:00,VALID,920.58,VALID,0,VALID,98.585,VALID,-0.0509425,VALID,18.1767,VALID,9,VALID,0.18125,
2002-11-30, 01:05:00,VALID,920.569,VALID,0,VALID,98.5328,VALID,-0.0509425,VALID,18.1315,VALID,9,VALID,0.252804,
2002-11-30, 01:06:00,VALID,920.587,VALID,0,VALID,98.6574,VALID,-0.0509425,VALID,18.1317,VALID,9,VALID,0.0564236,
2002-11-30, 01:07:00,VALID,920.57,VALID,0,VALID,98.8024,VALID,-0.0509425,VALID,18.1804,VALID,9,VALID,0.00164474,
2002-11-30, 01:08:00,VALID,920.561,VALID,0,VALID,98.9156,VALID,0,VALID,18.2055,VALID,9,VALID,0,
2002-11-30, 01:09:00,VALID,920.565,VALID,0,VALID,98.8444,VALID,-0.0509425,VALID,18.2055,VALID,9,VALID,0,
2002-11-30, 01:10:00,VALID,920.562,VALID,0,VALID,98.7846,VALID,-0.0679233,VALID,18.1797,VALID,9,VALID,0,
2002-11-30, 01:11:00,VALID,920.541,VALID,0,VALID,98.7744,VALID,-0.0339617,VALID,18.167,VALID,9,VALID,0,
2002-11-30, 01:12:00,VALID,920.51,VALID,0,VALID,98.7732,VALID,-0.0509425,VALID,18.1571,VALID,9,VALID,0,
2002-11-30, 01:13:00,VALID,920.493,VALID,0,VALID,98.8011,VALID,-0.0339617,VALID,18.167,VALID,9,VALID,0,
2002-11-30, 01:14:00,VALID,920.472,VALID,0,VALID,98.8316,VALID,-0.0169808,VALID,18.1765,VALID,9,VALID,0,
2002-11-30, 01:15:00,VALID,920.449,VALID,0,VALID,98.9703,VALID,-0.0509425,VALID,18.2344,VALID,6,VALID,0.198691,
2002-11-30, 01:16:00,VALID,920.442,VALID,0,VALID,99.1674,VALID,-0.0169808,VALID,18.3737,VALID,5,VALID,0.0205592,
2002-11-30, 01:17:00,VALID,920.436,VALID,0,VALID,99.1012,VALID,-0.0509425,VALID,18.3993,VALID,5,VALID,0,
2002-11-30, 01:18:00,VALID,920.425,VALID,0,VALID,98.8494,VALID,-0.0509425,VALID,18.3673,VALID,5,VALID,0.000446429,
2002-11-30, 01:19:00,VALID,920.406,VALID,0,VALID,98.6129,VALID,-0.0169808,VALID,18.2704,VALID,5,VALID,0.0010016,
2002-11-30, 01:20:00,VALID,920.391,VALID,0,VALID,98.721,VALID,-0.0169808,VALID,18.215,VALID,354,VALID,0.221354,
2002-11-30, 01:21:00,VALID,920.369,VALID,0,VALID,98.9448,VALID,-0.0169808,VALID,18.2741,VALID,242,VALID,0.0688734,
2002-11-30, 01:22:00,VALID,920.341,VALID,0,VALID,99.0504,VALID,-0.0849042,VALID,18.3352,VALID,242,VALID,0,
2002-11-30, 01:23:00,VALID,920.325,VALID,0,VALID,99.0987,VALID,-0.0509425,VALID,18.4095,VALID,242,VALID,0,
2002-11-30, 01:24:00,VALID,920.319,VALID,0,VALID,98.6117,VALID,-0.101885,VALID,18.2967,VALID,242,VALID,0.000892857,
2002-11-30, 01:25:00,VALID,920.301,VALID,0,VALID,98.6676,VALID,-0.0679233,VALID,18.2323,VALID,242,VALID,0,
2002-11-30, 01:26:00,VALID,920.295,VALID,0,VALID,98.7465,VALID,-0.0169808,VALID,18.2579,VALID,242,VALID,0,
2002-11-30, 01:27:00,VALID,920.291,VALID,0,VALID,98.454,VALID,-0.0509425,VALID,18.1869,VALID,242,VALID,0,
2002-11-30, 01:28:00,VALID,920.27,VALID,0,VALID,98.3777,VALID,-0.0679233,VALID,18.1257,VALID,242,VALID,0.141242,
2002-11-30, 01:29:00,VALID,920.253,VALID,0,VALID,98.248,VALID,-0.0679233,VALID,18.0646,VALID,242,VALID,0.329181,
2002-11-30, 01:30:00,VALID,920.254,VALID,0,VALID,98.2213,VALID,-0.0679233,VALID,18.0159,VALID,242,VALID,0.284539,
2002-11-30, 01:31:00,VALID,920.25,VALID,0,VALID,98.3548,VALID,-0.0679233,VALID,18.0228,VALID,242,VALID,0.0370536,
2002-11-30, 01:32:00,VALID,920.237,VALID,0,VALID,98.7007,VALID,-0.0849042,VALID,18.0734,VALID,242,VALID,0.0861607,
2002-11-30, 01:33:00,VALID,920.236,VALID,0,VALID,98.8774,VALID,-0.0679233,VALID,18.1675,VALID,242,VALID,0,
2002-11-30, 01:34:00,VALID,920.224,VALID,0,VALID,98.8304,VALID,-0.0679233,VALID,18.1998,VALID,242,VALID,0,
2002-11-30, 01:35:00,VALID,920.213,VALID,0,VALID,98.777,VALID,-0.0679233,VALID,18.203,VALID,242,VALID,0,
2002-11-30, 01:36:00,VALID,920.188,VALID,0,VALID,98.4565,VALID,0.0509425,VALID,18.1368,VALID,305,VALID,0.147593,
2002-11-30, 01:37:00,VALID,920.171,VALID,0,VALID,98.4591,VALID,0.0339617,VALID,18.1276,VALID,24,VALID,0.49815,
2002-11-30, 01:38:00,VALID,920.16,VALID,0,VALID,98.468,VALID,0.0679233,VALID,18.1209,VALID,24,VALID,0.587277,
2002-11-30, 01:39:00,VALID,920.15,VALID,0,VALID,98.5061,VALID,0.0849042,VALID,18.111,VALID,24,VALID,0.530134,
2002-11-30, 01:40:00,VALID,920.141,VALID,0,VALID,98.7007,VALID,0.0679233,VALID,18.1467,VALID,24,VALID,0.621394,
2002-11-30, 01:41:00,VALID,920.121,VALID,0,VALID,98.9512,VALID,0.0849042,VALID,18.2402,VALID,24,VALID,0.589627,
2002-11-30, 01:42:00,VALID,920.11,VALID,0,VALID,99.0516,VALID,0.0509425,VALID,18.2983,VALID,24,VALID,0.457854,
2002-11-30, 01:43:00,VALID,920.117,VALID,0,VALID,99.0733,VALID,0.0339617,VALID,18.3534,VALID,23,VALID,0.518159,
2002-11-30, 01:44:00,VALID,920.101,VALID,0,VALID,99.0885,VALID,0.0169808,VALID,18.3758,VALID,13,VALID,0.547286,
2002-11-30, 01:45:00,VALID,920.091,VALID,0,VALID,99.1203,VALID,0.0509425,VALID,18.421,VALID,9,VALID,0.722991,
2002-11-30, 01:46:00,VALID,920.083,VALID,0,VALID,99.0326,VALID,0.0679233,VALID,18.4275,VALID,8,VALID,0.539509,
2002-11-30, 01:47:00,VALID,920.082,VALID,0,VALID,99.0148,VALID,0.0339617,VALID,18.4404,VALID,5,VALID,0.75,
2002-11-30, 01:48:00,VALID,920.088,VALID,0,VALID,98.9931,VALID,0.0339617,VALID,18.4598,VALID,354,VALID,0.699002,
2002-11-30, 01:49:00,VALID,920.086,VALID,0,VALID,98.913,VALID,0.0679233,VALID,18.4826,VALID,2,VALID,0.542969,
2002-11-30, 01:50:00,VALID,920.101,VALID,0,VALID,98.7999,VALID,0,VALID,18.4826,VALID,3,VALID,0.572846,
2002-11-30, 01:51:00,VALID,920.101,VALID,0,VALID,98.8304,VALID,-0.0509425,VALID,18.5034,VALID,3,VALID,0.484375,
2002-11-30, 01:52:00,VALID,920.105,VALID,0,VALID,98.7426,VALID,-0.0679233,VALID,18.5161,VALID,3,VALID,0.11183,
2002-11-30, 01:53:00,VALID,920.093,VALID,0,VALID,98.6981,VALID,-0.0679233,VALID,18.5419,VALID,3,VALID,0.16317,
2002-11-30, 01:54:00,VALID,920.103,VALID,0,VALID,98.4565,VALID,-0.0679233,VALID,18.5193,VALID,2,VALID,0.134215,
2002-11-30, 01:55:00,VALID,920.101,VALID,0,VALID,98.3294,VALID,-0.0509425,VALID,18.4805,VALID,333,VALID,0.243273,
2002-11-30, 01:56:00,VALID,920.097,VALID,0,VALID,98.4692,VALID,-0.0679233,VALID,18.5195,VALID,332,VALID,0.199836,
2002-11-30, 01:57:00,VALID,920.096,VALID,0,VALID,98.4832,VALID,-0.101885,VALID,18.5551,VALID,333,VALID,0.243877,
2002-11-30, 01:58:00,VALID,920.081,VALID,0,VALID,98.5099,VALID,-0.101885,VALID,18.5874,VALID,8,VALID,0.464844,
2002-11-30, 01:59:00,VALID,920.047,VALID,0,VALID,98.454,VALID,-0.0679233,VALID,18.613,VALID,11,VALID,0.537723,
2002-11-30, 02:00:00,VALID,920.065,VALID,0,VALID,98.3688,VALID,-0.0679233,VALID,18.6227,VALID,6,VALID,0.604464,
2002-11-30, 02:01:00,VALID,920.059,VALID,0,VALID,98.3319,VALID,-0.0849042,VALID,18.6649,VALID,357,VALID,0.546074,
2002-11-30, 02:02:00,VALID,920.055,VALID,0,VALID,98.1742,VALID,-0.0849042,VALID,18.6714,VALID,10,VALID,0.583984,
2002-11-30, 02:03:00,VALID,920.072,VALID,0,VALID,97.8563,VALID,-0.0679233,VALID,18.6294,VALID,8,VALID,0.754729,
2002-11-30, 02:04:00,VALID,920.057,VALID,0,VALID,97.8169,VALID,-0.0679233,VALID,18.6192,VALID,11,VALID,0.913851,
2002-11-30, 02:05:00,VALID,920.048,VALID,0,VALID,97.7279,VALID,-0.101885,VALID,18.6261,VALID,11,VALID,0.950863,
2002-11-30, 02:06:00,VALID,920.037,VALID,0,VALID,97.6847,VALID,-0.0849042,VALID,18.6259,VALID,11,VALID,0.762277,
2002-11-30, 02:07:00,VALID,920.039,VALID,0,VALID,97.4774,VALID,-0.101885,VALID,18.6167,VALID,14,VALID,0.6375,
2002-11-30, 02:08:00,VALID,920.046,VALID,0,VALID,97.4685,VALID,-0.0679233,VALID,18.604,VALID,4,VALID,0.551082,
2002-11-30, 02:09:00,VALID,920.052,VALID,0,VALID,97.6478,VALID,-0.101885,VALID,18.6164,VALID,356,VALID,0.56684,
2002-11-30, 02:10:00,VALID,920.035,VALID,0,VALID,97.8436,VALID,-0.101885,VALID,18.6817,VALID,342,VALID,0.513569,
2002-11-30, 02:11:00,VALID,920.025,VALID,0,VALID,97.9072,VALID,-0.0679233,VALID,18.7066,VALID,331,VALID,0.293497,
2002-11-30, 02:12:00,VALID,920.003,VALID,0,VALID,97.8055,VALID,-0.0849042,VALID,18.73,VALID,331,VALID,0.139597,
2002-11-30, 02:13:00,VALID,919.978,VALID,0,VALID,97.705,VALID,-0.0849042,VALID,18.7126,VALID,347,VALID,0.511384,
2002-11-30, 02:14:00,VALID,919.973,VALID,0,VALID,97.5562,VALID,-0.101885,VALID,18.7364,VALID,355,VALID,0.614732,
2002-11-30, 02:15:00,VALID,919.944,VALID,0,VALID,97.6643,VALID,-0.101885,VALID,18.7327,VALID,2,VALID,0.620793,
2002-11-30, 02:16:00,VALID,919.929,VALID,0,VALID,97.5486,VALID,-0.0509425,VALID,18.7422,VALID,4,VALID,0.626519,
2002-11-30, 02:17:00,VALID,919.915,VALID,0,VALID,97.5473,VALID,-0.0679233,VALID,18.7452,VALID,15,VALID,0.750617,
2002-11-30, 02:18:00,VALID,919.898,VALID,0,VALID,97.4494,VALID,-0.0509425,VALID,18.7646,VALID,14,VALID,0.439823,
2002-11-30, 02:19:00,VALID,919.903,VALID,0,VALID,97.2867,VALID,-0.0509425,VALID,18.7486,VALID,14,VALID,0.494038,
2002-11-30, 02:20:00,VALID,919.892,VALID,0,VALID,97.1506,VALID,-0.0509425,VALID,18.726,VALID,13,VALID,0.503795,
2002-11-30, 02:21:00,VALID,919.871,VALID,0,VALID,97.2638,VALID,-0.101885,VALID,18.7459,VALID,12,VALID,0.495089,
2002-11-30, 02:22:00,VALID,919.868,VALID,0,VALID,96.9865,VALID,-0.0849042,VALID,18.7101,VALID,5,VALID,0.315505,
2002-11-30, 02:23:00,VALID,919.852,VALID,0,VALID,96.8721,VALID,-0.101885,VALID,18.681,VALID,5,VALID,0.408637,
2002-11-30, 02:24:00,VALID,919.846,VALID,0,VALID,96.6877,VALID,-0.101885,VALID,18.6125,VALID,5,VALID,0.211143,
2002-11-30, 02:25:00,VALID,919.83,VALID,0,VALID,96.9459,VALID,-0.0849042,VALID,18.6097,VALID,352,VALID,0.631968,
2002-11-30, 02:26:00,VALID,919.83,VALID,0,VALID,97.3591,VALID,-0.101885,VALID,18.6619,VALID,354,VALID,0.669819,
2002-11-30, 02:27:00,VALID,919.831,VALID,0,VALID,97.3299,VALID,-0.101885,VALID,18.6843,VALID,4,VALID,0.513393,
2002-11-30, 02:28:00,VALID,919.811,VALID,0,VALID,97.4227,VALID,-0.101885,VALID,18.7138,VALID,6,VALID,0.43125,
2002-11-30, 02:29:00,VALID,919.809,VALID,0,VALID,97.2282,VALID,-0.101885,VALID,18.7104,VALID,6,VALID,0.178085,
2002-11-30, 02:30:00,VALID,919.782,VALID,0,VALID,96.9306,VALID,-0.0849042,VALID,18.6714,VALID,6,VALID,0.0989583,
2002-11-30, 02:31:00,VALID,919.752,VALID,0,VALID,96.9382,VALID,-0.0849042,VALID,18.6453,VALID,6,VALID,0,
2002-11-30, 02:32:00,VALID,919.717,VALID,0,VALID,97.0984,VALID,-0.101885,VALID,18.652,VALID,6,VALID,0,
2002-11-30, 02:33:00,VALID,919.675,VALID,0,VALID,97.0158,VALID,-0.101885,VALID,18.6455,VALID,6,VALID,0,
2002-11-30, 02:34:00,VALID,919.656,VALID,0,VALID,96.909,VALID,-0.0679233,VALID,18.6264,VALID,6,VALID,0,
2002-11-30, 02:35:00,VALID,919.649,VALID,0,VALID,97.0857,VALID,-0.101885,VALID,18.6164,VALID,6,VALID,0,
2002-11-30, 02:36:00,VALID,919.639,VALID,0,VALID,97.162,VALID,-0.101885,VALID,18.6231,VALID,6,VALID,0,
2002-11-30, 02:37:00,VALID,919.628,VALID,0,VALID,97.0717,VALID,-0.0849042,VALID,18.6102,VALID,6,VALID,0,
2002-11-30, 02:38:00,VALID,919.62,VALID,0,VALID,96.7717,VALID,-0.101885,VALID,18.5807,VALID,6,VALID,0,
2002-11-30, 02:39:00,VALID,919.613,VALID,0,VALID,96.7564,VALID,-0.101885,VALID,18.5419,VALID,6,VALID,0.127323,
2002-11-30, 02:40:00,VALID,919.608,VALID,0,VALID,96.7437,VALID,-0.101885,VALID,18.5394,VALID,15,VALID,0.411595,
2002-11-30, 02:41:00,VALID,919.607,VALID,0,VALID,96.4805,VALID,-0.101885,VALID,18.4589,VALID,21,VALID,0.408259,
2002-11-30, 02:42:00,VALID,919.612,VALID,0,VALID,96.8937,VALID,-0.101885,VALID,18.4718,VALID,22,VALID,0.494196,
2002-11-30, 02:43:00,VALID,919.587,VALID,0,VALID,96.7767,VALID,-0.101885,VALID,18.4224,VALID,31,VALID,0.519631,
2002-11-30, 02:44:00,VALID,919.571,VALID,0,VALID,97.0997,VALID,-0.101885,VALID,18.4166,VALID,32,VALID,0.350694,
2002-11-30, 02:45:00,VALID,919.548,VALID,0,VALID,97.3095,VALID,-0.135847,VALID,18.4363,VALID,32,VALID,0.143092,
2002-11-30, 02:46:00,VALID,919.522,VALID,0,VALID,97.4418,VALID,-0.101885,VALID,18.4358,VALID,32,VALID,0.0331503,
2002-11-30, 02:47:00,VALID,919.509,VALID,0,VALID,97.7915,VALID,-0.118866,VALID,18.4939,VALID,32,VALID,0.0298109,
2002-11-30, 02:48:00,VALID,919.49,VALID,0,VALID,97.972,VALID,-0.101885,VALID,18.5555,VALID,32,VALID,0,
2002-11-30, 02:49:00,VALID,919.485,VALID,0,VALID,97.9085,VALID,-0.101885,VALID,18.5844,VALID,32,VALID,0,
2002-11-30, 02:50:00,VALID,919.491,VALID,0,VALID,97.7533,VALID,-0.118866,VALID,18.5848,VALID,32,VALID,0,
2002-11-30, 02:51:00,VALID,919.49,VALID,0,VALID,97.5079,VALID,-0.0169808,VALID,18.5472,VALID,32,VALID,0,
2002-11-30, 02:52:00,VALID,919.487,VALID,0,VALID,97.4176,VALID,0,VALID,18.5151,VALID,32,VALID,0,
2002-11-30, 02:53:00,VALID,919.475,VALID,0,VALID,97.4812,VALID,0.0169808,VALID,18.5186,VALID,32,VALID,0,
2002-11-30, 02:54:00,VALID,919.463,VALID,0,VALID,97.5461,VALID,0,VALID,18.5154,VALID,32,VALID,0,
2002-11-30, 02:55:00,VALID,919.45,VALID,0,VALID,97.3947,VALID,0,VALID,18.4891,VALID,32,VALID,0,
2002-11-30, 02:56:00,VALID,919.454,VALID,0,VALID,97.2358,VALID,-0.0169808,VALID,18.4505,VALID,32,VALID,0,
2002-11-30, 02:57:00,VALID,919.432,VALID,0,VALID,97.0578,VALID,0,VALID,18.412,VALID,32,VALID,0,
2002-11-30, 02:58:00,VALID,919.422,VALID,0,VALID,97.2396,VALID,-0.0339617,VALID,18.3961,VALID,32,VALID,0,
2002-11-30, 02:59:00,VALID,919.422,VALID,0,VALID,97.1824,VALID,0,VALID,18.3569,VALID,32,VALID,0,
2002-11-30, 03:00:00,VALID,919.415,VALID,0,VALID,97.3057,VALID,0,VALID,18.3543,VALID,32,VALID,0,
2002-11-30, 03:01:00,VALID,919.417,VALID,0,VALID,97.5575,VALID,0,VALID,18.3509,VALID,32,VALID,0,
2002-11-30, 03:02:00,VALID,919.424,VALID,0,VALID,97.6084,VALID,-0.0169808,VALID,18.3537,VALID,32,VALID,0,
2002-11-30, 03:03:00,VALID,919.438,VALID,0,VALID,97.5664,VALID,-0.0169808,VALID,18.3405,VALID,32,VALID,0,
2002-11-30, 03:04:00,VALID,919.443,VALID,0,VALID,97.4558,VALID,0,VALID,18.3218,VALID,32,VALID,0,
2002-11-30, 03:05:00,VALID,919.428,VALID,0,VALID,97.4342,VALID,0,VALID,18.2856,VALID,32,VALID,0,
2002-11-30, 03:06:00,VALID,919.419,VALID,0,VALID,97.2078,VALID,-0.0169808,VALID,18.2508,VALID,32,VALID,0,
2002-11-30, 03:07:00,VALID,919.427,VALID,0,VALID,97.3731,VALID,0,VALID,18.2118,VALID,32,VALID,0,
2002-11-30, 03:08:00,VALID,919.432,VALID,0,VALID,97.6134,VALID,0.0339617,VALID,18.2083,VALID,32,VALID,0,
2002-11-30, 03:09:00,VALID,919.434,VALID,0,VALID,98.0293,VALID,0,VALID,18.2508,VALID,32,VALID,0,
2002-11-30, 03:10:00,VALID,919.438,VALID,0,VALID,98.3548,VALID,-0.0509425,VALID,18.3089,VALID,32,VALID,0,
2002-11-30, 03:11:00,VALID,919.441,VALID,0,VALID,98.5862,VALID,-0.0169808,VALID,18.38,VALID,32,VALID,0,
2002-11-30, 03:12:00,VALID,919.425,VALID,0,VALID,98.721,VALID,-0.0169808,VALID,18.4478,VALID,32,VALID,0,
2002-11-30, 03:13:00,VALID,919.423,VALID,0,VALID,98.7414,VALID,-0.0169808,VALID,18.4928,VALID,32,VALID,0,
2002-11-30, 03:14:00,VALID,919.435,VALID,0,VALID,98.7019,VALID,0,VALID,18.5288,VALID,32,VALID,0,
2002-11-30, 03:15:00,VALID,919.426,VALID,0,VALID,98.6943,VALID,0,VALID,18.5442,VALID,32,VALID,0,
2002-11-30, 03:16:00,VALID,919.419,VALID,0,VALID,98.5951,VALID,-0.0339617,VALID,18.544,VALID,32,VALID,0,
2002-11-30, 03:17:00,VALID,919.411,VALID,0,VALID,98.5163,VALID,0,VALID,18.5345,VALID,32,VALID,0,
2002-11-30, 03:18:00,VALID,919.403,VALID,0,VALID,98.4896,VALID,0,VALID,18.5251,VALID,32,VALID,0,
2002-11-30, 03:19:00,VALID,919.411,VALID,0,VALID,98.5532,VALID,0,VALID,18.5407,VALID,32,VALID,0,
2002-11-30, 03:20:00,VALID,919.429,VALID,0,VALID,98.6625,VALID,0,VALID,18.606,VALID,32,VALID,0.103413,
2002-11-30, 03:21:00,VALID,919.412,VALID,0,VALID,98.7045,VALID,-0.0339617,VALID,18.6321,VALID,3,VALID,0.171875,
2002-11-30, 03:22:00,VALID,919.406,VALID,0,VALID,98.7363,VALID,-0.0509425,VALID,18.6808,VALID,343,VALID,0.0838816,
2002-11-30, 03:23:00,VALID,919.387,VALID,0,VALID,98.7859,VALID,-0.0339617,VALID,18.7219,VALID,343,VALID,0.0725446,
2002-11-30, 03:24:00,VALID,919.371,VALID,0,VALID,98.7643,VALID,-0.0509425,VALID,18.7514,VALID,343,VALID,0,
2002-11-30, 03:25:00,VALID,919.356,VALID,0,VALID,98.7147,VALID,-0.0509425,VALID,18.771,VALID,343,VALID,0,
2002-11-30, 03:26:00,VALID,919.366,VALID,0,VALID,98.5951,VALID,-0.0339617,VALID,18.7613,VALID,343,VALID,0,
2002-11-30, 03:27:00,VALID,919.36,VALID,0,VALID,98.468,VALID,-0.0339617,VALID,18.7256,VALID,343,VALID,0,
2002-11-30, 03:28:00,VALID,919.351,VALID,0,VALID,98.3027,VALID,-0.0509425,VALID,18.684,VALID,343,VALID,0,
2002-11-30, 03:29:00,VALID,919.359,VALID,0,VALID,97.9924,VALID,-0.0169808,VALID,18.616,VALID,343,VALID,0,
2002-11-30, 03:30:00,VALID,919.354,VALID,0,VALID,97.8156,VALID,-0.0169808,VALID,18.5511,VALID,343,VALID,0,
2002-11-30, 03:31:00,VALID,919.354,VALID,0,VALID,97.6007,VALID,0,VALID,18.4865,VALID,343,VALID,0,
2002-11-30, 03:32:00,VALID,919.353,VALID,0,VALID,97.3986,VALID,-0.0339617,VALID,18.4247,VALID,343,VALID,0,
2002-11-30, 03:33:00,VALID,919.362,VALID,0,VALID,97.527,VALID,-0.0169808,VALID,18.38,VALID,343,VALID,0,
2002-11-30, 03:34:00,VALID,919.385,VALID,0,VALID,97.8474,VALID,-0.0169808,VALID,18.4095,VALID,343,VALID,0,
2002-11-30, 03:35:00,VALID,919.393,VALID,0,VALID,97.9415,VALID,0,VALID,18.3989,VALID,343,VALID,0.0259713,
2002-11-30, 03:36:00,VALID,919.393,VALID,0,VALID,97.9835,VALID,0,VALID,18.4023,VALID,343,VALID,0.131373,
2002-11-30, 03:37:00,VALID,919.398,VALID,0,VALID,97.9631,VALID,0,VALID,18.3728,VALID,343,VALID,0,